Tracking 20083 objects as of 12-Dec-2019
HD Live streaming from Space Station
objects crossing your sky now

COSMOS 2251 DEB

Track COSMOS 2251 DEB now!
10-day predictions


NORAD ID: 36632
Int'l Code: 1993-036BEW
Perigee: 756.9 km
Apogee: 818.5 km
Inclination: 74.0 °
Period: 100.5 minutes
Semi major axis: 7158 km
RCS: 0.0009 m2 (small)
Launch date: June 16, 1993
Source: Commonwealth of Independent States (former USSR) (CIS)
Launch site: PLESETSK MISSILE AND SPACE COMPLEX (PKMTR)

Note: This is SATELLITE DEBRIS
aabbcc
Your satellite tracking list
Your tracking list is empty




NASA's NSSDC Master Catalog

Two Line Element Set (TLE):
1 36632U 93036BEW 19346.34100261  .00000289  00000-0  11337-3 0  9998
2 36632  74.0062   6.8104 0042987 272.5226  87.1005 14.33341818519468
Source of the keplerian elements: AFSPC